GEFSMA_prec_meanprecacc_048.txt.gz
Total_Precipitation_Accumulation
0.17 0.22 0.28 0.33 0.21 0.19 0.15 0.13 0.11 0.11 0.08 0.04 0.02 0.02 0.02 0.02 0.02 0.02 0.02 0.05 0.07 0.10 0.13 0.12 0.10 0.10 0.11 0.12 0.12 0.12 0.12 0.12 0.12 0.11 0.08 0.06 0.05 0.04 0.04 0.04 0.05 0.06 0.07
0.26 0.34 0.31 0.28 0.19 0.16 0.18 0.24 0.24 0.16 0.11 0.09 0.05 0.05 0.05 0.05 0.04 0.04 0.04 0.06 0.10 0.10 0.13 0.14 0.14 0.14 0.13 0.13 0.14 0.14 0.15 0.15 0.16 0.17 0.16 0.14 0.12 0.10 0.09 0.08 0.08 0.08 0.07
0.20 0.26 0.30 0.28 0.22 0.18 0.17 0.18 0.22 0.24 0.20 0.17 0.13 0.09 0.09 0.10 0.10 0.08 0.07 0.07 0.09 0.12 0.14 0.13 0.13 0.12 0.12 0.14 0.15 0.16 0.17 0.17 0.17 0.17 0.17 0.18 0.18 0.19 0.19 0.17 0.17 0.17 0.15
0.22 0.26 0.32 0.32 0.30 0.28 0.28 0.28 0.27 0.28 0.29 0.24 0.21 0.20 0.17 0.17 0.16 0.14 0.10 0.10 0.10 0.10 0.12 0.12 0.10 0.10 0.11 0.11 0.13 0.15 0.19 0.21 0.21 0.19 0.19 0.19 0.21 0.20 0.21 0.22 0.23 0.23 0.23
0.38 0.41 0.45 0.48 0.46 0.46 0.43 0.39 0.37 0.33 0.32 0.29 0.23 0.19 0.17 0.18 0.16 0.12 0.09 0.09 0.08 0.07 0.07 0.08 0.09 0.10 0.10 0.09 0.09 0.10 0.11 0.14 0.18 0.19 0.18 0.18 0.20 0.21 0.19 0.19 0.21 0.24 0.26
0.72 0.70 0.70 0.68 0.67 0.59 0.51 0.45 0.39 0.34 0.29 0.25 0.18 0.13 0.11 0.10 0.08 0.06 0.05 0.05 0.04 0.04 0.03 0.03 0.03 0.04 0.06 0.05 0.05 0.05 0.05 0.06 0.09 0.12 0.12 0.15 0.19 0.20 0.18 0.17 0.19 0.23 0.25
1.12 1.02 0.91 0.85 0.78 0.65 0.53 0.43 0.35 0.30 0.25 0.19 0.15 0.11 0.07 0.04 0.03 0.02 0.02 0.01 0.01 0.01 0.01 0.01 0.01 0.01 0.01 0.02 0.02 0.02 0.02 0.03 0.04 0.05 0.07 0.13 0.16 0.13 0.13 0.13 0.15 0.19 0.24
1.45 1.35 1.27 1.15 0.95 0.76 0.61 0.47 0.37 0.30 0.24 0.18 0.15 0.11 0.08 0.04 0.02 0.01 0.01 0.01 0.01 0.01 0.01 0.01 0.01 0.00 0.00 0.00 0.00 0.01 0.02 0.02 0.02 0.03 0.06 0.10 0.13 0.12 0.11 0.12 0.12 0.15 0.21
1.69 1.55 1.45 1.29 1.09 0.88 0.73 0.57 0.42 0.32 0.23 0.15 0.08 0.06 0.05 0.04 0.02 0.01 0.01 0.01 0.01 0.01 0.01 0.00 0.00 0.00 0.00 0.00 0.00 0.00 0.01 0.02 0.02 0.02 0.04 0.09 0.11 0.11 0.11 0.12 0.14 0.16 0.21
1.55 1.36 1.21 1.04 0.89 0.72 0.55 0.40 0.28 0.20 0.12 0.07 0.04 0.03 0.02 0.02 0.02 0.02 0.01 0.00 0.00 0.00 0.00 0.00 0.00 0.00 0.00 0.00 0.00 0.00 0.00 0.02 0.02 0.02 0.02 0.05 0.08 0.11 0.11 0.11 0.12 0.16 0.19
1.27 1.09 0.92 0.73 0.54 0.39 0.27 0.19 0.14 0.11 0.09 0.06 0.04 0.03 0.02 0.01 0.01 0.02 0.01 0.00 0.00 0.00 0.00 0.00 0.00 0.00 0.00 0.00 0.01 0.01 0.01 0.02 0.02 0.03 0.03 0.03 0.04 0.09 0.12 0.11 0.12 0.14 0.17
0.96 0.73 0.54 0.36 0.24 0.17 0.13 0.10 0.08 0.06 0.04 0.03 0.01 0.01 0.01 0.01 0.01 0.01 0.01 0.00 0.00 0.00 0.00 0.00 0.00 0.00 0.00 0.00 0.00 0.00 0.01 0.02 0.03 0.03 0.02 0.02 0.02 0.04 0.07 0.10 0.12 0.16 0.19
0.56 0.39 0.27 0.20 0.14 0.10 0.06 0.04 0.03 0.02 0.01 0.01 0.01 0.01 0.00 0.00 0.00 0.00 0.00 0.00 0.00 0.00 0.00 0.00 0.00 0.00 0.00 0.00 0.00 0.00 0.01 0.03 0.03 0.03 0.02 0.01 0.01 0.02 0.03 0.04 0.07 0.11 0.16
0.32 0.26 0.21 0.14 0.08 0.04 0.03 0.02 0.01 0.01 0.01 0.01 0.01 0.01 0.01 0.01 0.01 0.00 0.01 0.01 0.01 0.00 0.00 0.00 0.00 0.00 0.00 0.00 0.00 0.00 0.02 0.02 0.03 0.04 0.03 0.02 0.02 0.02 0.02 0.04 0.05 0.07 0.09
0.17 0.12 0.09 0.05 0.03 0.01 0.01 0.01 0.01 0.01 0.01 0.01 0.01 0.01 0.02 0.01 0.01 0.01 0.02 0.04 0.06 0.05 0.02 0.00 0.00 0.00 0.00 0.00 0.00 0.01 0.04 0.05 0.04 0.04 0.04 0.03 0.03 0.03 0.03 0.04 0.05 0.05 0.06
0.07 0.04 0.02 0.02 0.01 0.01 0.01 0.01 0.01 0.01 0.01 0.01 0.01 0.02 0.02 0.02 0.03 0.04 0.05 0.05 0.06 0.08 0.06 0.02 0.01 0.01 0.02 0.02 0.01 0.03 0.06 0.06 0.05 0.04 0.04 0.04 0.05 0.05 0.05 0.06 0.07 0.08 0.08
0.04 0.02 0.02 0.01 0.01 0.01 0.01 0.01 0.01 0.01 0.01 0.01 0.02 0.02 0.04 0.05 0.06 0.06 0.06 0.05 0.06 0.09 0.11 0.05 0.02 0.03 0.06 0.08 0.09 0.12 0.12 0.13 0.11 0.08 0.07 0.08 0.08 0.08 0.08 0.10 0.10 0.11 0.12
0.02 0.01 0.01 0.02 0.02 0.01 0.01 0.01 0.01 0.02 0.02 0.02 0.03 0.04 0.05 0.05 0.07 0.07 0.06 0.06 0.07 0.10 0.13 0.11 0.08 0.07 0.10 0.13 0.14 0.15 0.08 0.06 0.11 0.09 0.08 0.09 0.10 0.12 0.13 0.13 0.13 0.11 0.09
0.03 0.04 0.04 0.03 0.03 0.02 0.02 0.02 0.02 0.02 0.02 0.03 0.03 0.04 0.05 0.05 0.06 0.06 0.06 0.06 0.07 0.09 0.14 0.18 0.15 0.13 0.12 0.10 0.13 0.11 0.11 0.16 0.11 0.08 0.08 0.08 0.09 0.09 0.08 0.08 0.07 0.07 0.06
0.05 0.05 0.04 0.03 0.02 0.01 0.01 0.01 0.01 0.01 0.01 0.02 0.03 0.03 0.04 0.04 0.05 0.06 0.06 0.07 0.11 0.15 0.17 0.20 0.17 0.12 0.10 0.08 0.14 0.14 0.13 0.13 0.12 0.09 0.09 0.07 0.07 0.05 0.04 0.03 0.04 0.05 0.05
0.06 0.05 0.03 0.02 0.01 0.01 0.00 0.00 0.00 0.00 0.01 0.01 0.02 0.02 0.03 0.04 0.05 0.06 0.07 0.10 0.16 0.20 0.20 0.21 0.17 0.12 0.09 0.10 0.14 0.16 0.16 0.11 0.08 0.07 0.08 0.06 0.06 0.06 0.06 0.05 0.04 0.04 0.04
0.03 0.02 0.01 0.01 0.01 0.00 0.00 0.00 0.00 0.00 0.01 0.02 0.03 0.03 0.03 0.03 0.03 0.03 0.06 0.11 0.17 0.21 0.21 0.22 0.19 0.17 0.12 0.14 0.20 0.22 0.22 0.22 0.17 0.11 0.13 0.08 0.07 0.07 0.08 0.10 0.10 0.07 0.06
0.02 0.02 0.01 0.01 0.02 0.01 0.00 0.00 0.00 0.00 0.02 0.03 0.05 0.06 0.04 0.02 0.04 0.07 0.07 0.07 0.08 0.10 0.16 0.24 0.25 0.21 0.20 0.22 0.32 0.33 0.31 0.31 0.25 0.19 0.22 0.17 0.11 0.11 0.10 0.10 0.12 0.11 0.08
0.02 0.02 0.01 0.02 0.03 0.02 0.00 0.00 0.00 0.01 0.03 0.04 0.05 0.06 0.06 0.06 0.06 0.07 0.06 0.05 0.05 0.05 0.09 0.15 0.22 0.22 0.20 0.24 0.34 0.39 0.37 0.33 0.25 0.20 0.29 0.30 0.17 0.14 0.11 0.16 0.20 0.17 0.12
0.02 0.02 0.02 0.02 0.04 0.05 0.01 0.00 0.00 0.01 0.02 0.02 0.03 0.04 0.05 0.07 0.07 0.08 0.07 0.07 0.06 0.06 0.08 0.15 0.22 0.27 0.32 0.38 0.41 0.42 0.43 0.42 0.34 0.25 0.34 0.39 0.30 0.22 0.17 0.21 0.24 0.21 0.20
0.02 0.02 0.02 0.03 0.05 0.07 0.02 0.00 0.01 0.01 0.02 0.02 0.02 0.04 0.07 0.07 0.07 0.07 0.06 0.09 0.13 0.11 0.14 0.20 0.33 0.51 0.57 0.55 0.50 0.46 0.45 0.45 0.43 0.45 0.42 0.46 0.40 0.31 0.26 0.23 0.24 0.25 0.29

GEFSMA_prec_meanprecacc_054.txt.gz
Total_Precipitation_Accumulation
0.18 0.23 0.29 0.35 0.23 0.21 0.18 0.15 0.12 0.11 0.09 0.04 0.03 0.02 0.02 0.02 0.02 0.02 0.04 0.06 0.08 0.12 0.17 0.15 0.14 0.13 0.14 0.15 0.15 0.15 0.15 0.13 0.14 0.13 0.10 0.07 0.06 0.05 0.05 0.05 0.06 0.07 0.08
0.27 0.34 0.32 0.31 0.22 0.19 0.22 0.27 0.26 0.17 0.12 0.09 0.06 0.05 0.05 0.05 0.05 0.05 0.06 0.09 0.12 0.14 0.19 0.20 0.20 0.21 0.20 0.18 0.18 0.18 0.18 0.18 0.18 0.19 0.17 0.15 0.13 0.11 0.10 0.09 0.10 0.10 0.09
0.21 0.27 0.32 0.32 0.27 0.24 0.22 0.21 0.25 0.26 0.21 0.18 0.14 0.10 0.10 0.12 0.11 0.10 0.09 0.10 0.13 0.16 0.19 0.19 0.20 0.19 0.19 0.19 0.18 0.20 0.21 0.20 0.20 0.19 0.19 0.20 0.20 0.21 0.20 0.18 0.18 0.19 0.16
0.23 0.29 0.35 0.38 0.37 0.36 0.37 0.35 0.32 0.32 0.32 0.27 0.23 0.21 0.19 0.20 0.18 0.16 0.14 0.14 0.17 0.18 0.19 0.17 0.15 0.14 0.14 0.16 0.17 0.20 0.24 0.26 0.27 0.24 0.22 0.21 0.23 0.22 0.23 0.23 0.24 0.24 0.23
0.42 0.46 0.51 0.55 0.55 0.57 0.54 0.49 0.44 0.39 0.39 0.34 0.25 0.20 0.19 0.20 0.17 0.14 0.14 0.14 0.14 0.13 0.13 0.12 0.12 0.13 0.12 0.13 0.14 0.15 0.17 0.20 0.23 0.23 0.21 0.20 0.22 0.23 0.21 0.21 0.23 0.25 0.27
0.81 0.79 0.79 0.79 0.80 0.74 0.66 0.56 0.48 0.42 0.36 0.31 0.21 0.15 0.13 0.12 0.10 0.08 0.08 0.08 0.08 0.07 0.06 0.06 0.06 0.07 0.09 0.09 0.08 0.09 0.10 0.12 0.14 0.15 0.15 0.17 0.21 0.21 0.19 0.18 0.20 0.24 0.26
1.28 1.18 1.10 1.06 0.98 0.86 0.72 0.58 0.48 0.40 0.33 0.26 0.21 0.16 0.09 0.06 0.04 0.04 0.04 0.04 0.03 0.03 0.03 0.03 0.03 0.03 0.04 0.05 0.04 0.05 0.05 0.06 0.07 0.08 0.10 0.15 0.18 0.14 0.14 0.13 0.15 0.20 0.24
1.72 1.60 1.51 1.39 1.19 1.00 0.82 0.65 0.51 0.41 0.33 0.26 0.22 0.19 0.13 0.07 0.04 0.02 0.02 0.02 0.02 0.02 0.02 0.02 0.02 0.02 0.02 0.02 0.01 0.02 0.03 0.04 0.03 0.05 0.08 0.12 0.15 0.13 0.12 0.12 0.13 0.16 0.21
2.04 1.86 1.74 1.58 1.37 1.14 0.95 0.75 0.56 0.43 0.33 0.24 0.16 0.13 0.11 0.09 0.05 0.02 0.02 0.02 0.02 0.02 0.01 0.01 0.01 0.01 0.01 0.01 0.00 0.01 0.01 0.03 0.03 0.03 0.06 0.11 0.13 0.12 0.12 0.13 0.15 0.17 0.21
1.82 1.63 1.46 1.28 1.11 0.93 0.77 0.59 0.43 0.30 0.21 0.15 0.11 0.08 0.06 0.05 0.05 0.03 0.01 0.01 0.01 0.01 0.01 0.00 0.00 0.01 0.01 0.01 0.01 0.00 0.00 0.02 0.03 0.03 0.03 0.06 0.10 0.12 0.12 0.13 0.14 0.17 0.21
1.54 1.33 1.14 0.94 0.74 0.58 0.46 0.36 0.26 0.21 0.17 0.13 0.09 0.07 0.05 0.04 0.03 0.04 0.03 0.01 0.00 0.00 0.00 0.00 0.00 0.00 0.00 0.00 0.01 0.01 0.01 0.02 0.02 0.03 0.03 0.03 0.05 0.09 0.12 0.12 0.13 0.15 0.19
1.22 0.95 0.72 0.53 0.39 0.31 0.26 0.23 0.18 0.14 0.10 0.07 0.04 0.03 0.03 0.02 0.02 0.02 0.02 0.01 0.00 0.00 0.00 0.00 0.00 0.00 0.00 0.00 0.00 0.00 0.01 0.02 0.03 0.03 0.02 0.02 0.02 0.04 0.07 0.10 0.13 0.17 0.20
0.77 0.56 0.42 0.34 0.27 0.21 0.16 0.12 0.09 0.06 0.04 0.03 0.02 0.02 0.01 0.01 0.01 0.01 0.01 0.01 0.00 0.00 0.00 0.00 0.00 0.00 0.00 0.00 0.00 0.00 0.01 0.03 0.03 0.03 0.02 0.01 0.01 0.02 0.03 0.04 0.08 0.12 0.17
0.51 0.40 0.34 0.28 0.20 0.12 0.07 0.05 0.04 0.03 0.02 0.01 0.01 0.01 0.01 0.01 0.01 0.01 0.01 0.01 0.02 0.01 0.00 0.00 0.00 0.00 0.00 0.00 0.00 0.00 0.02 0.02 0.03 0.04 0.03 0.02 0.02 0.02 0.02 0.04 0.05 0.07 0.09
0.30 0.22 0.18 0.14 0.08 0.04 0.03 0.02 0.02 0.01 0.01 0.01 0.01 0.02 0.02 0.01 0.01 0.02 0.02 0.04 0.06 0.05 0.02 0.00 0.00 0.00 0.00 0.00 0.00 0.01 0.04 0.05 0.04 0.04 0.04 0.03 0.03 0.03 0.03 0.04 0.05 0.05 0.06
0.18 0.12 0.08 0.05 0.03 0.02 0.02 0.01 0.01 0.01 0.01 0.01 0.01 0.02 0.03 0.02 0.03 0.04 0.05 0.05 0.06 0.08 0.06 0.02 0.01 0.01 0.02 0.02 0.01 0.03 0.06 0.06 0.05 0.04 0.04 0.04 0.05 0.05 0.05 0.06 0.07 0.09 0.09
0.13 0.10 0.08 0.06 0.04 0.03 0.02 0.02 0.02 0.02 0.02 0.02 0.02 0.03 0.04 0.05 0.07 0.06 0.06 0.06 0.06 0.09 0.11 0.05 0.02 0.03 0.06 0.08 0.09 0.12 0.12 0.13 0.11 0.08 0.07 0.08 0.08 0.08 0.08 0.10 0.11 0.12 0.13
0.13 0.11 0.08 0.06 0.05 0.04 0.03 0.03 0.03 0.03 0.03 0.03 0.03 0.04 0.05 0.06 0.08 0.07 0.06 0.06 0.07 0.10 0.14 0.12 0.08 0.07 0.10 0.13 0.15 0.15 0.08 0.07 0.11 0.09 0.08 0.09 0.10 0.12 0.13 0.13 0.13 0.12 0.10
0.10 0.09 0.08 0.07 0.05 0.04 0.03 0.03 0.03 0.03 0.03 0.03 0.03 0.04 0.05 0.06 0.06 0.06 0.07 0.06 0.07 0.09 0.15 0.19 0.15 0.14 0.12 0.11 0.14 0.12 0.12 0.17 0.11 0.08 0.08 0.08 0.09 0.09 0.08 0.08 0.07 0.07 0.06
0.10 0.09 0.08 0.06 0.04 0.03 0.02 0.02 0.01 0.01 0.02 0.02 0.03 0.04 0.04 0.04 0.06 0.07 0.07 0.08 0.12 0.16 0.18 0.21 0.17 0.13 0.11 0.10 0.16 0.16 0.14 0.15 0.13 0.09 0.09 0.08 0.07 0.05 0.04 0.03 0.04 0.05 0.05
0.09 0.07 0.05 0.04 0.03 0.02 0.01 0.01 0.00 0.00 0.01 0.02 0.02 0.02 0.03 0.04 0.06 0.06 0.07 0.11 0.17 0.22 0.22 0.22 0.18 0.13 0.10 0.12 0.16 0.19 0.18 0.13 0.10 0.08 0.10 0.07 0.08 0.07 0.08 0.07 0.05 0.04 0.04
0.04 0.03 0.02 0.01 0.01 0.00 0.00 0.00 0.00 0.00 0.01 0.02 0.03 0.03 0.03 0.03 0.03 0.03 0.06 0.11 0.18 0.22 0.23 0.23 0.20 0.18 0.14 0.17 0.23 0.25 0.25 0.25 0.19 0.13 0.16 0.10 0.08 0.09 0.11 0.12 0.11 0.07 0.06
0.02 0.02 0.01 0.01 0.02 0.01 0.00 0.00 0.00 0.00 0.02 0.04 0.05 0.06 0.04 0.02 0.04 0.07 0.08 0.08 0.09 0.10 0.16 0.25 0.26 0.24 0.23 0.25 0.36 0.36 0.34 0.34 0.28 0.21 0.26 0.19 0.13 0.14 0.12 0.12 0.12 0.11 0.08
0.02 0.02 0.02 0.02 0.03 0.02 0.00 0.00 0.00 0.01 0.03 0.04 0.05 0.06 0.06 0.06 0.07 0.07 0.06 0.05 0.06 0.08 0.11 0.16 0.25 0.25 0.23 0.26 0.37 0.41 0.39 0.35 0.27 0.23 0.33 0.33 0.19 0.16 0.12 0.19 0.22 0.17 0.12
0.02 0.02 0.02 0.02 0.04 0.05 0.01 0.00 0.00 0.01 0.02 0.02 0.03 0.04 0.06 0.08 0.08 0.08 0.07 0.07 0.08 0.09 0.10 0.16 0.23 0.28 0.33 0.39 0.42 0.43 0.46 0.46 0.36 0.27 0.37 0.43 0.32 0.25 0.18 0.23 0.27 0.22 0.20
0.02 0.02 0.02 0.03 0.05 0.07 0.02 0.00 0.01 0.01 0.02 0.02 0.03 0.04 0.07 0.07 0.07 0.07 0.06 0.10 0.15 0.14 0.17 0.22 0.36 0.53 0.59 0.58 0.51 0.47 0.48 0.49 0.47 0.48 0.46 0.50 0.43 0.35 0.29 0.25 0.28 0.30 0.34

GEFSMA_prec_meanprecacc_060.txt.gz
Total_Precipitation_Accumulation
0.20 0.25 0.30 0.36 0.25 0.24 0.22 0.18 0.15 0.14 0.10 0.05 0.03 0.03 0.02 0.03 0.04 0.06 0.10 0.10 0.10 0.15 0.20 0.20 0.17 0.16 0.17 0.18 0.18 0.17 0.16 0.15 0.15 0.14 0.11 0.08 0.07 0.06 0.06 0.06 0.07 0.08 0.09
0.31 0.38 0.35 0.34 0.25 0.23 0.27 0.31 0.30 0.21 0.15 0.12 0.08 0.06 0.06 0.06 0.08 0.10 0.14 0.14 0.15 0.17 0.23 0.25 0.25 0.25 0.23 0.21 0.21 0.20 0.20 0.20 0.20 0.20 0.19 0.16 0.14 0.13 0.12 0.11 0.11 0.11 0.10
0.28 0.31 0.37 0.38 0.32 0.29 0.27 0.26 0.30 0.32 0.27 0.22 0.17 0.12 0.13 0.14 0.16 0.22 0.21 0.19 0.20 0.21 0.24 0.24 0.24 0.24 0.23 0.23 0.21 0.22 0.23 0.22 0.21 0.20 0.21 0.21 0.22 0.23 0.22 0.21 0.20 0.20 0.17
0.29 0.35 0.41 0.46 0.43 0.42 0.45 0.44 0.40 0.41 0.42 0.35 0.30 0.27 0.24 0.24 0.23 0.25 0.23 0.25 0.30 0.28 0.25 0.20 0.18 0.18 0.19 0.20 0.20 0.22 0.26 0.28 0.29 0.26 0.24 0.24 0.25 0.24 0.24 0.24 0.25 0.25 0.24
0.47 0.53 0.58 0.65 0.64 0.65 0.63 0.57 0.54 0.51 0.53 0.47 0.34 0.28 0.24 0.26 0.23 0.18 0.18 0.21 0.26 0.25 0.21 0.18 0.17 0.17 0.16 0.17 0.18 0.19 0.20 0.23 0.26 0.25 0.24 0.23 0.24 0.25 0.23 0.22 0.24 0.26 0.28
0.90 0.90 0.90 0.90 0.89 0.85 0.78 0.69 0.62 0.54 0.50 0.43 0.30 0.22 0.20 0.18 0.16 0.14 0.13 0.14 0.14 0.13 0.13 0.13 0.13 0.12 0.13 0.13 0.13 0.14 0.15 0.17 0.18 0.20 0.19 0.21 0.25 0.25 0.22 0.20 0.22 0.26 0.27
1.39 1.31 1.22 1.21 1.13 1.02 0.90 0.78 0.66 0.56 0.47 0.37 0.33 0.30 0.21 0.14 0.11 0.10 0.09 0.10 0.09 0.09 0.10 0.11 0.11 0.09 0.08 0.09 0.08 0.08 0.09 0.10 0.11 0.12 0.14 0.20 0.22 0.18 0.17 0.16 0.17 0.22 0.25
1.84 1.73 1.65 1.55 1.37 1.20 1.03 0.87 0.73 0.62 0.50 0.40 0.38 0.39 0.34 0.24 0.14 0.09 0.08 0.08 0.08 0.07 0.07 0.08 0.08 0.06 0.05 0.05 0.04 0.05 0.05 0.07 0.07 0.09 0.12 0.17 0.19 0.17 0.16 0.16 0.16 0.18 0.24
2.19 2.03 1.92 1.78 1.57 1.34 1.15 0.95 0.77 0.65 0.54 0.44 0.36 0.36 0.34 0.29 0.19 0.11 0.07 0.05 0.04 0.05 0.04 0.04 0.05 0.04 0.04 0.03 0.03 0.03 0.03 0.05 0.05 0.06 0.09 0.14 0.17 0.16 0.16 0.18 0.19 0.21 0.25
2.00 1.83 1.68 1.49 1.31 1.12 0.94 0.77 0.62 0.50 0.46 0.39 0.30 0.23 0.19 0.16 0.16 0.12 0.06 0.03 0.03 0.02 0.02 0.02 0.02 0.02 0.02 0.02 0.02 0.02 0.02 0.03 0.04 0.03 0.04 0.07 0.11 0.14 0.14 0.15 0.17 0.21 0.25
1.74 1.52 1.31 1.11 0.92 0.77 0.65 0.55 0.45 0.40 0.37 0.30 0.22 0.16 0.13 0.10 0.09 0.10 0.08 0.04 0.03 0.02 0.02 0.02 0.02 0.02 0.02 0.01 0.01 0.01 0.02 0.02 0.03 0.03 0.03 0.03 0.06 0.10 0.13 0.14 0.14 0.17 0.21
1.39 1.10 0.86 0.66 0.52 0.43 0.39 0.36 0.31 0.26 0.21 0.17 0.11 0.07 0.06 0.06 0.06 0.06 0.06 0.04 0.03 0.02 0.02 0.02 0.02 0.02 0.01 0.01 0.01 0.01 0.01 0.03 0.04 0.04 0.03 0.02 0.03 0.05 0.08 0.11 0.15 0.18 0.22
0.93 0.70 0.54 0.44 0.36 0.30 0.24 0.19 0.15 0.11 0.09 0.08 0.06 0.05 0.04 0.04 0.03 0.03 0.03 0.03 0.02 0.02 0.01 0.01 0.01 0.01 0.01 0.01 0.01 0.01 0.02 0.03 0.04 0.03 0.02 0.02 0.02 0.02 0.03 0.05 0.08 0.13 0.19
0.66 0.53 0.45 0.37 0.28 0.19 0.13 0.10 0.08 0.06 0.05 0.04 0.03 0.03 0.03 0.03 0.02 0.02 0.02 0.03 0.04 0.02 0.01 0.01 0.00 0.00 0.00 0.01 0.01 0.01 0.02 0.03 0.03 0.04 0.03 0.02 0.02 0.02 0.03 0.04 0.06 0.08 0.10
0.42 0.31 0.25 0.21 0.15 0.10 0.07 0.06 0.05 0.04 0.04 0.03 0.03 0.03 0.03 0.03 0.03 0.03 0.04 0.05 0.07 0.06 0.03 0.01 0.01 0.00 0.00 0.01 0.01 0.01 0.04 0.05 0.04 0.04 0.04 0.03 0.03 0.03 0.03 0.04 0.05 0.05 0.06
0.27 0.20 0.15 0.12 0.10 0.09 0.07 0.06 0.05 0.04 0.04 0.04 0.04 0.04 0.05 0.04 0.05 0.05 0.06 0.06 0.07 0.09 0.07 0.02 0.02 0.01 0.02 0.02 0.01 0.04 0.07 0.06 0.05 0.04 0.04 0.05 0.05 0.05 0.06 0.06 0.07 0.09 0.09
0.23 0.19 0.17 0.14 0.13 0.11 0.09 0.08 0.07 0.07 0.06 0.06 0.05 0.06 0.07 0.08 0.09 0.09 0.08 0.08 0.08 0.10 0.12 0.05 0.02 0.03 0.06 0.09 0.09 0.13 0.13 0.14 0.12 0.09 0.08 0.08 0.08 0.08 0.08 0.10 0.11 0.12 0.13
0.21 0.19 0.16 0.15 0.14 0.12 0.11 0.10 0.09 0.08 0.07 0.06 0.06 0.07 0.07 0.07 0.09 0.08 0.07 0.07 0.07 0.11 0.14 0.12 0.09 0.08 0.10 0.14 0.16 0.16 0.09 0.07 0.12 0.09 0.09 0.09 0.11 0.12 0.13 0.13 0.13 0.12 0.10
0.16 0.15 0.13 0.12 0.10 0.08 0.07 0.06 0.05 0.04 0.03 0.04 0.04 0.05 0.05 0.06 0.07 0.07 0.07 0.06 0.08 0.09 0.16 0.19 0.16 0.15 0.13 0.12 0.15 0.13 0.13 0.19 0.12 0.09 0.08 0.08 0.10 0.09 0.09 0.08 0.07 0.07 0.06
0.13 0.11 0.09 0.07 0.05 0.04 0.03 0.02 0.02 0.02 0.02 0.03 0.03 0.04 0.04 0.05 0.06 0.07 0.07 0.09 0.12 0.17 0.19 0.22 0.19 0.14 0.12 0.11 0.18 0.19 0.17 0.18 0.16 0.10 0.10 0.08 0.08 0.06 0.04 0.04 0.04 0.05 0.05
0.09 0.07 0.06 0.04 0.03 0.02 0.01 0.01 0.01 0.01 0.01 0.02 0.03 0.03 0.03 0.04 0.06 0.06 0.07 0.11 0.17 0.22 0.23 0.23 0.19 0.14 0.12 0.15 0.20 0.23 0.21 0.16 0.12 0.10 0.12 0.10 0.11 0.11 0.11 0.10 0.07 0.05 0.04
0.05 0.03 0.02 0.01 0.01 0.00 0.00 0.00 0.00 0.00 0.01 0.03 0.03 0.04 0.04 0.03 0.03 0.04 0.06 0.11 0.18 0.22 0.23 0.24 0.21 0.20 0.17 0.22 0.29 0.29 0.28 0.28 0.21 0.15 0.19 0.12 0.11 0.13 0.14 0.15 0.12 0.08 0.06
0.03 0.03 0.02 0.02 0.02 0.01 0.00 0.00 0.00 0.00 0.03 0.05 0.07 0.07 0.05 0.03 0.05 0.08 0.08 0.08 0.09 0.11 0.17 0.25 0.28 0.26 0.28 0.30 0.40 0.39 0.38 0.38 0.31 0.25 0.30 0.22 0.17 0.16 0.14 0.13 0.13 0.11 0.08
0.03 0.03 0.02 0.03 0.05 0.03 0.00 0.00 0.00 0.01 0.04 0.06 0.07 0.07 0.08 0.08 0.08 0.07 0.06 0.06 0.09 0.13 0.15 0.19 0.28 0.28 0.26 0.29 0.38 0.42 0.41 0.38 0.31 0.30 0.39 0.36 0.21 0.18 0.13 0.22 0.23 0.17 0.12
0.03 0.03 0.03 0.04 0.06 0.06 0.01 0.00 0.00 0.01 0.04 0.04 0.04 0.05 0.06 0.09 0.08 0.08 0.07 0.08 0.11 0.15 0.14 0.18 0.24 0.29 0.34 0.39 0.42 0.44 0.47 0.50 0.41 0.34 0.43 0.45 0.34 0.26 0.18 0.26 0.30 0.23 0.21
0.04 0.04 0.03 0.05 0.07 0.08 0.02 0.00 0.01 0.01 0.03 0.04 0.05 0.08 0.09 0.08 0.07 0.07 0.06 0.12 0.18 0.17 0.20 0.25 0.40 0.58 0.64 0.62 0.53 0.49 0.51 0.55 0.54 0.54 0.51 0.53 0.46 0.37 0.31 0.27 0.31 0.34 0.39

GEFSMA_prec_meanprecacc_066.txt.gz
Total_Precipitation_Accumulation
0.22 0.28 0.33 0.38 0.27 0.28 0.27 0.22 0.18 0.19 0.15 0.10 0.09 0.09 0.08 0.09 0.10 0.13 0.17 0.17 0.19 0.25 0.30 0.27 0.23 0.20 0.21 0.21 0.21 0.19 0.18 0.16 0.16 0.15 0.11 0.08 0.07 0.07 0.06 0.07 0.08 0.08 0.09
0.33 0.40 0.39 0.37 0.27 0.27 0.33 0.41 0.39 0.28 0.21 0.18 0.14 0.13 0.12 0.14 0.15 0.17 0.21 0.19 0.21 0.25 0.32 0.33 0.32 0.31 0.28 0.26 0.25 0.23 0.24 0.22 0.22 0.22 0.20 0.17 0.15 0.14 0.12 0.12 0.12 0.12 0.11
0.33 0.34 0.41 0.42 0.35 0.32 0.30 0.32 0.36 0.38 0.33 0.28 0.24 0.18 0.19 0.21 0.26 0.31 0.34 0.28 0.27 0.29 0.33 0.35 0.34 0.32 0.29 0.29 0.27 0.28 0.29 0.27 0.25 0.23 0.23 0.24 0.23 0.25 0.24 0.22 0.22 0.21 0.18
0.36 0.41 0.46 0.49 0.46 0.45 0.49 0.49 0.46 0.47 0.48 0.43 0.41 0.38 0.34 0.36 0.35 0.38 0.36 0.39 0.42 0.36 0.33 0.30 0.29 0.29 0.28 0.28 0.29 0.30 0.34 0.35 0.34 0.31 0.28 0.27 0.28 0.26 0.26 0.26 0.27 0.27 0.26
0.56 0.61 0.66 0.70 0.69 0.72 0.70 0.64 0.61 0.58 0.62 0.59 0.45 0.40 0.39 0.42 0.39 0.34 0.34 0.37 0.41 0.38 0.32 0.28 0.28 0.28 0.28 0.30 0.31 0.31 0.30 0.32 0.32 0.30 0.29 0.27 0.28 0.28 0.25 0.24 0.27 0.29 0.31
1.04 1.02 1.00 0.99 0.98 0.96 0.89 0.78 0.72 0.65 0.60 0.54 0.40 0.34 0.31 0.29 0.29 0.29 0.29 0.29 0.29 0.28 0.28 0.27 0.25 0.23 0.24 0.26 0.26 0.28 0.27 0.26 0.25 0.26 0.24 0.26 0.30 0.29 0.25 0.23 0.25 0.29 0.31
1.55 1.45 1.35 1.34 1.25 1.14 1.01 0.91 0.78 0.67 0.57 0.46 0.43 0.39 0.29 0.22 0.20 0.20 0.21 0.22 0.23 0.25 0.29 0.30 0.26 0.21 0.19 0.19 0.18 0.19 0.19 0.19 0.19 0.20 0.20 0.26 0.28 0.23 0.22 0.21 0.22 0.27 0.31
2.00 1.88 1.79 1.69 1.49 1.32 1.15 0.98 0.84 0.74 0.62 0.50 0.47 0.49 0.42 0.31 0.21 0.17 0.17 0.16 0.16 0.15 0.17 0.18 0.17 0.16 0.15 0.15 0.14 0.15 0.14 0.15 0.16 0.19 0.22 0.26 0.27 0.23 0.21 0.21 0.22 0.25 0.29
2.36 2.21 2.10 1.95 1.71 1.46 1.26 1.05 0.87 0.75 0.64 0.53 0.46 0.46 0.43 0.36 0.25 0.18 0.14 0.11 0.10 0.10 0.10 0.09 0.10 0.11 0.11 0.11 0.11 0.11 0.12 0.13 0.14 0.16 0.20 0.23 0.23 0.22 0.21 0.23 0.25 0.27 0.32
2.25 2.03 1.87 1.67 1.46 1.24 1.08 0.91 0.74 0.61 0.56 0.47 0.39 0.33 0.29 0.25 0.23 0.18 0.11 0.08 0.07 0.06 0.06 0.06 0.06 0.07 0.07 0.08 0.09 0.09 0.09 0.09 0.10 0.09 0.09 0.12 0.15 0.17 0.18 0.18 0.21 0.25 0.30
1.97 1.70 1.47 1.26 1.06 0.89 0.76 0.66 0.56 0.49 0.44 0.37 0.30 0.24 0.21 0.18 0.16 0.16 0.13 0.08 0.07 0.07 0.06 0.06 0.06 0.07 0.07 0.08 0.09 0.10 0.11 0.09 0.09 0.09 0.09 0.08 0.10 0.14 0.17 0.17 0.17 0.20 0.24
1.55 1.23 0.99 0.79 0.62 0.51 0.46 0.42 0.36 0.30 0.25 0.21 0.16 0.12 0.10 0.10 0.10 0.10 0.10 0.08 0.06 0.06 0.06 0.06 0.07 0.07 0.07 0.07 0.07 0.10 0.09 0.09 0.09 0.08 0.07 0.06 0.06 0.08 0.11 0.14 0.17 0.21 0.25
1.06 0.82 0.65 0.55 0.45 0.36 0.30 0.24 0.19 0.16 0.13 0.12 0.11 0.09 0.07 0.06 0.06 0.06 0.07 0.07 0.06 0.05 0.04 0.04 0.04 0.04 0.05 0.05 0.05 0.08 0.07 0.07 0.07 0.06 0.04 0.04 0.04 0.04 0.05 0.07 0.10 0.15 0.21
0.76 0.61 0.51 0.42 0.32 0.22 0.16 0.13 0.11 0.10 0.08 0.08 0.07 0.07 0.07 0.06 0.05 0.05 0.06 0.07 0.07 0.06 0.04 0.04 0.03 0.03 0.03 0.04 0.05 0.06 0.05 0.06 0.06 0.06 0.06 0.04 0.04 0.04 0.04 0.05 0.07 0.09 0.11
0.49 0.36 0.29 0.24 0.17 0.12 0.09 0.07 0.07 0.07 0.07 0.07 0.07 0.06 0.06 0.05 0.04 0.05 0.06 0.08 0.11 0.10 0.07 0.05 0.04 0.04 0.04 0.04 0.04 0.05 0.07 0.08 0.06 0.06 0.05 0.04 0.04 0.04 0.04 0.05 0.06 0.06 0.07
0.32 0.25 0.19 0.15 0.13 0.11 0.09 0.08 0.07 0.06 0.06 0.06 0.06 0.06 0.06 0.06 0.06 0.07 0.08 0.09 0.11 0.13 0.12 0.07 0.05 0.04 0.05 0.04 0.03 0.06 0.08 0.07 0.06 0.05 0.05 0.05 0.05 0.06 0.06 0.07 0.08 0.09 0.10
0.28 0.24 0.20 0.18 0.16 0.13 0.11 0.10 0.10 0.09 0.09 0.09 0.08 0.08 0.09 0.09 0.11 0.10 0.09 0.09 0.09 0.12 0.14 0.07 0.04 0.04 0.07 0.10 0.10 0.13 0.13 0.14 0.12 0.09 0.08 0.08 0.08 0.09 0.09 0.11 0.12 0.13 0.14
0.24 0.21 0.18 0.17 0.15 0.13 0.11 0.11 0.10 0.09 0.09 0.08 0.07 0.08 0.08 0.08 0.09 0.08 0.08 0.07 0.08 0.12 0.15 0.13 0.09 0.08 0.11 0.14 0.16 0.16 0.09 0.07 0.12 0.09 0.09 0.10 0.11 0.12 0.13 0.14 0.14 0.12 0.10
0.18 0.16 0.14 0.13 0.10 0.08 0.07 0.06 0.05 0.04 0.04 0.04 0.04 0.05 0.06 0.06 0.07 0.07 0.08 0.07 0.08 0.10 0.16 0.20 0.16 0.15 0.13 0.12 0.15 0.13 0.14 0.20 0.12 0.09 0.08 0.09 0.10 0.10 0.09 0.08 0.08 0.07 0.06
0.14 0.12 0.10 0.07 0.05 0.04 0.03 0.02 0.02 0.02 0.02 0.03 0.03 0.04 0.04 0.05 0.06 0.07 0.07 0.09 0.12 0.17 0.20 0.22 0.19 0.14 0.12 0.11 0.18 0.19 0.17 0.18 0.16 0.10 0.10 0.09 0.08 0.06 0.04 0.04 0.04 0.05 0.05
0.10 0.08 0.06 0.04 0.03 0.02 0.01 0.01 0.01 0.01 0.01 0.02 0.03 0.03 0.03 0.04 0.06 0.06 0.07 0.11 0.17 0.22 0.23 0.23 0.19 0.14 0.12 0.15 0.20 0.23 0.21 0.16 0.12 0.10 0.12 0.10 0.11 0.11 0.11 0.10 0.07 0.06 0.04
0.05 0.03 0.02 0.02 0.01 0.00 0.00 0.00 0.00 0.00 0.01 0.03 0.04 0.04 0.04 0.03 0.03 0.04 0.06 0.11 0.18 0.22 0.23 0.24 0.21 0.20 0.17 0.22 0.29 0.29 0.29 0.28 0.21 0.16 0.19 0.12 0.11 0.13 0.14 0.15 0.12 0.08 0.06
0.03 0.03 0.02 0.02 0.02 0.01 0.00 0.00 0.00 0.00 0.03 0.05 0.07 0.07 0.05 0.03 0.05 0.08 0.08 0.08 0.10 0.12 0.18 0.26 0.28 0.27 0.28 0.30 0.40 0.39 0.38 0.38 0.32 0.25 0.30 0.22 0.17 0.17 0.14 0.13 0.13 0.11 0.08
0.03 0.03 0.02 0.03 0.05 0.03 0.00 0.00 0.00 0.01 0.04 0.06 0.07 0.07 0.08 0.08 0.08 0.07 0.06 0.06 0.09 0.13 0.16 0.20 0.29 0.28 0.26 0.29 0.39 0.43 0.41 0.38 0.31 0.30 0.39 0.36 0.22 0.18 0.13 0.22 0.23 0.17 0.12
0.04 0.04 0.03 0.04 0.06 0.06 0.01 0.00 0.00 0.01 0.04 0.04 0.04 0.05 0.07 0.09 0.08 0.08 0.07 0.08 0.11 0.15 0.14 0.18 0.24 0.29 0.34 0.39 0.43 0.44 0.47 0.50 0.42 0.34 0.43 0.45 0.34 0.26 0.18 0.26 0.30 0.23 0.21
0.04 0.04 0.04 0.05 0.07 0.08 0.02 0.00 0.01 0.01 0.03 0.04 0.06 0.08 0.09 0.08 0.07 0.07 0.06 0.12 0.18 0.18 0.20 0.25 0.40 0.58 0.65 0.63 0.54 0.49 0.52 0.56 0.55 0.55 0.52 0.53 0.46 0.37 0.31 0.27 0.31 0.35 0.39

GEFSMA_prec_meanprecacc_072.txt.gz
Total_Precipitation_Accumulation
0.22 0.28 0.33 0.38 0.27 0.29 0.28 0.24 0.20 0.21 0.19 0.13 0.11 0.11 0.11 0.12 0.13 0.16 0.19 0.19 0.23 0.33 0.42 0.40 0.34 0.28 0.26 0.25 0.25 0.23 0.22 0.20 0.19 0.17 0.14 0.10 0.09 0.09 0.09 0.09 0.09 0.10 0.11
0.34 0.41 0.40 0.39 0.28 0.28 0.35 0.43 0.42 0.31 0.25 0.22 0.17 0.17 0.17 0.18 0.20 0.21 0.23 0.21 0.25 0.32 0.43 0.47 0.46 0.44 0.38 0.33 0.30 0.28 0.28 0.27 0.26 0.25 0.23 0.20 0.18 0.16 0.15 0.14 0.14 0.13 0.12
0.35 0.38 0.45 0.46 0.39 0.36 0.36 0.36 0.41 0.43 0.37 0.33 0.30 0.26 0.25 0.26 0.30 0.35 0.38 0.33 0.32 0.37 0.44 0.49 0.49 0.48 0.45 0.42 0.36 0.36 0.36 0.34 0.31 0.29 0.28 0.28 0.27 0.28 0.27 0.25 0.24 0.23 0.20
0.42 0.48 0.53 0.56 0.53 0.53 0.57 0.57 0.54 0.54 0.55 0.48 0.47 0.44 0.40 0.40 0.39 0.43 0.42 0.45 0.50 0.44 0.42 0.44 0.46 0.48 0.48 0.48 0.47 0.48 0.47 0.45 0.43 0.38 0.35 0.33 0.32 0.30 0.29 0.29 0.29 0.29 0.28
0.69 0.74 0.79 0.82 0.83 0.86 0.84 0.75 0.71 0.68 0.71 0.65 0.52 0.46 0.45 0.48 0.45 0.40 0.41 0.45 0.50 0.46 0.42 0.39 0.43 0.48 0.49 0.53 0.55 0.53 0.50 0.48 0.46 0.43 0.39 0.36 0.35 0.34 0.30 0.28 0.30 0.32 0.33
1.25 1.24 1.21 1.18 1.18 1.14 1.05 0.94 0.86 0.76 0.69 0.61 0.46 0.39 0.37 0.35 0.35 0.36 0.36 0.38 0.37 0.35 0.37 0.38 0.36 0.36 0.40 0.45 0.48 0.52 0.50 0.47 0.44 0.43 0.38 0.38 0.40 0.37 0.31 0.28 0.30 0.33 0.34
1.81 1.69 1.57 1.54 1.44 1.33 1.19 1.05 0.90 0.76 0.65 0.53 0.49 0.45 0.34 0.26 0.24 0.25 0.26 0.28 0.29 0.30 0.37 0.39 0.36 0.33 0.31 0.34 0.34 0.37 0.39 0.39 0.39 0.39 0.38 0.42 0.41 0.33 0.30 0.28 0.29 0.33 0.36
2.26 2.11 2.00 1.89 1.68 1.50 1.31 1.11 0.93 0.82 0.69 0.57 0.56 0.57 0.49 0.35 0.24 0.20 0.20 0.20 0.21 0.20 0.22 0.24 0.24 0.25 0.25 0.25 0.27 0.31 0.33 0.37 0.39 0.43 0.47 0.47 0.44 0.38 0.34 0.34 0.33 0.34 0.38
2.61 2.44 2.30 2.13 1.86 1.60 1.38 1.16 0.96 0.84 0.73 0.63 0.56 0.56 0.51 0.41 0.29 0.20 0.17 0.14 0.13 0.15 0.15 0.16 0.18 0.19 0.19 0.19 0.21 0.25 0.29 0.32 0.36 0.41 0.43 0.46 0.46 0.42 0.38 0.38 0.39 0.40 0.43
2.46 2.25 2.06 1.84 1.59 1.35 1.18 1.00 0.83 0.70 0.64 0.56 0.48 0.42 0.37 0.31 0.28 0.22 0.14 0.11 0.11 0.11 0.11 0.12 0.14 0.16 0.16 0.18 0.22 0.25 0.27 0.28 0.30 0.32 0.31 0.32 0.34 0.34 0.32 0.31 0.31 0.35 0.39
2.18 1.89 1.62 1.40 1.18 0.99 0.83 0.73 0.62 0.55 0.50 0.42 0.35 0.29 0.27 0.24 0.21 0.21 0.18 0.13 0.11 0.10 0.09 0.10 0.11 0.13 0.15 0.18 0.21 0.26 0.28 0.26 0.27 0.27 0.25 0.23 0.23 0.25 0.28 0.28 0.29 0.31 0.35
1.70 1.35 1.09 0.87 0.70 0.58 0.52 0.47 0.42 0.35 0.30 0.24 0.18 0.15 0.14 0.14 0.15 0.16 0.15 0.12 0.10 0.09 0.08 0.09 0.11 0.12 0.13 0.15 0.18 0.25 0.21 0.21 0.22 0.21 0.19 0.17 0.16 0.17 0.20 0.24 0.27 0.32 0.36
1.22 0.93 0.75 0.63 0.51 0.41 0.34 0.27 0.22 0.18 0.15 0.14 0.13 0.12 0.10 0.09 0.08 0.08 0.09 0.10 0.09 0.07 0.07 0.07 0.07 0.08 0.09 0.10 0.14 0.20 0.17 0.17 0.16 0.15 0.14 0.13 0.13 0.12 0.12 0.14 0.17 0.22 0.28
0.89 0.71 0.59 0.48 0.37 0.26 0.19 0.16 0.13 0.12 0.10 0.09 0.08 0.08 0.08 0.06 0.05 0.06 0.07 0.09 0.10 0.09 0.07 0.07 0.06 0.06 0.07 0.08 0.11 0.15 0.13 0.15 0.14 0.14 0.14 0.13 0.12 0.11 0.11 0.12 0.13 0.14 0.16
0.59 0.44 0.35 0.29 0.21 0.17 0.14 0.12 0.10 0.09 0.08 0.08 0.07 0.06 0.06 0.05 0.05 0.05 0.06 0.08 0.12 0.12 0.10 0.07 0.06 0.06 0.06 0.06 0.08 0.08 0.10 0.13 0.12 0.11 0.11 0.10 0.08 0.08 0.08 0.09 0.09 0.09 0.10
0.41 0.32 0.24 0.20 0.17 0.15 0.13 0.11 0.08 0.07 0.06 0.06 0.06 0.06 0.06 0.06 0.06 0.07 0.09 0.10 0.11 0.14 0.14 0.08 0.07 0.06 0.06 0.05 0.04 0.06 0.09 0.09 0.08 0.07 0.06 0.07 0.07 0.08 0.08 0.09 0.10 0.12 0.12
0.36 0.32 0.27 0.24 0.21 0.17 0.14 0.12 0.10 0.09 0.09 0.09 0.08 0.08 0.09 0.09 0.11 0.10 0.10 0.09 0.09 0.12 0.15 0.08 0.04 0.04 0.08 0.10 0.10 0.13 0.13 0.15 0.13 0.09 0.09 0.09 0.10 0.10 0.10 0.12 0.14 0.15 0.15
0.26 0.23 0.20 0.19 0.17 0.15 0.13 0.11 0.11 0.10 0.09 0.08 0.07 0.08 0.08 0.08 0.09 0.08 0.08 0.07 0.08 0.12 0.15 0.13 0.09 0.08 0.11 0.14 0.16 0.17 0.09 0.07 0.12 0.09 0.09 0.10 0.12 0.13 0.14 0.15 0.15 0.14 0.11
0.18 0.16 0.15 0.13 0.11 0.09 0.08 0.06 0.05 0.04 0.04 0.04 0.04 0.05 0.06 0.06 0.07 0.07 0.08 0.07 0.08 0.10 0.16 0.20 0.16 0.15 0.13 0.12 0.15 0.13 0.14 0.20 0.12 0.09 0.08 0.09 0.10 0.11 0.10 0.08 0.08 0.08 0.06
0.14 0.12 0.10 0.08 0.06 0.04 0.03 0.02 0.02 0.02 0.02 0.03 0.03 0.04 0.04 0.05 0.06 0.07 0.07 0.09 0.12 0.17 0.20 0.22 0.19 0.14 0.12 0.11 0.18 0.19 0.17 0.18 0.16 0.11 0.11 0.09 0.08 0.06 0.05 0.04 0.04 0.05 0.05
0.10 0.08 0.06 0.04 0.03 0.02 0.01 0.01 0.01 0.01 0.01 0.02 0.03 0.03 0.03 0.04 0.06 0.06 0.07 0.11 0.17 0.22 0.23 0.23 0.19 0.14 0.12 0.15 0.20 0.23 0.21 0.16 0.12 0.11 0.12 0.10 0.11 0.11 0.11 0.10 0.07 0.06 0.04
0.05 0.03 0.02 0.02 0.01 0.00 0.00 0.00 0.00 0.00 0.01 0.03 0.04 0.04 0.04 0.03 0.03 0.04 0.06 0.11 0.18 0.22 0.23 0.24 0.21 0.20 0.17 0.22 0.29 0.29 0.29 0.29 0.22 0.16 0.19 0.12 0.11 0.13 0.14 0.15 0.12 0.08 0.06
0.03 0.03 0.02 0.02 0.02 0.01 0.00 0.00 0.00 0.00 0.03 0.05 0.07 0.07 0.05 0.03 0.05 0.08 0.08 0.08 0.10 0.12 0.18 0.26 0.28 0.27 0.28 0.31 0.40 0.39 0.38 0.38 0.32 0.26 0.30 0.22 0.17 0.17 0.14 0.13 0.13 0.11 0.08
0.03 0.03 0.02 0.03 0.05 0.03 0.00 0.00 0.00 0.01 0.04 0.06 0.07 0.07 0.08 0.08 0.08 0.07 0.06 0.06 0.09 0.13 0.16 0.20 0.29 0.28 0.26 0.29 0.39 0.43 0.41 0.38 0.31 0.31 0.39 0.36 0.22 0.18 0.13 0.22 0.23 0.17 0.12
0.04 0.04 0.03 0.04 0.06 0.06 0.01 0.00 0.00 0.01 0.04 0.04 0.04 0.05 0.07 0.09 0.08 0.08 0.07 0.08 0.11 0.15 0.14 0.18 0.24 0.29 0.34 0.39 0.43 0.44 0.47 0.50 0.42 0.35 0.44 0.46 0.34 0.26 0.18 0.26 0.30 0.23 0.21
0.04 0.04 0.04 0.05 0.07 0.08 0.02 0.00 0.01 0.01 0.03 0.04 0.06 0.08 0.09 0.08 0.07 0.07 0.06 0.12 0.18 0.18 0.20 0.25 0.40 0.58 0.65 0.63 0.54 0.49 0.52 0.56 0.55 0.55 0.52 0.53 0.46 0.37 0.31 0.27 0.31 0.35 0.39

GEFSMA_prec_meanprecacc_078.txt.gz
Total_Precipitation_Accumulation
0.23 0.30 0.35 0.40 0.29 0.32 0.32 0.27 0.23 0.24 0.21 0.15 0.13 0.12 0.13 0.14 0.15 0.18 0.22 0.21 0.26 0.39 0.55 0.56 0.50 0.45 0.42 0.38 0.35 0.32 0.29 0.26 0.24 0.22 0.17 0.13 0.12 0.12 0.12 0.13 0.13 0.13 0.14
0.36 0.44 0.45 0.45 0.36 0.36 0.43 0.50 0.48 0.37 0.30 0.27 0.21 0.20 0.20 0.21 0.23 0.26 0.28 0.27 0.28 0.36 0.52 0.61 0.66 0.68 0.62 0.55 0.48 0.42 0.39 0.36 0.34 0.31 0.27 0.24 0.22 0.20 0.18 0.18 0.17 0.16 0.15
0.38 0.42 0.51 0.54 0.49 0.46 0.45 0.45 0.50 0.50 0.45 0.40 0.36 0.30 0.30 0.33 0.35 0.41 0.44 0.42 0.39 0.41 0.50 0.59 0.64 0.69 0.69 0.67 0.60 0.56 0.54 0.48 0.43 0.39 0.36 0.34 0.33 0.33 0.31 0.28 0.28 0.26 0.23
0.47 0.54 0.61 0.64 0.62 0.63 0.68 0.68 0.64 0.63 0.63 0.56 0.53 0.50 0.46 0.48 0.46 0.49 0.47 0.51 0.58 0.51 0.49 0.52 0.56 0.62 0.66 0.71 0.73 0.75 0.73 0.67 0.61 0.53 0.47 0.43 0.41 0.37 0.35 0.34 0.34 0.34 0.32
0.77 0.83 0.90 0.93 0.95 1.01 0.98 0.89 0.84 0.78 0.81 0.74 0.58 0.52 0.50 0.55 0.51 0.45 0.45 0.50 0.55 0.51 0.46 0.44 0.49 0.55 0.61 0.70 0.75 0.76 0.75 0.73 0.69 0.64 0.58 0.51 0.48 0.45 0.40 0.37 0.38 0.40 0.41
1.40 1.39 1.37 1.34 1.33 1.29 1.19 1.08 0.99 0.86 0.78 0.69 0.52 0.43 0.41 0.40 0.39 0.39 0.39 0.40 0.40 0.38 0.39 0.40 0.39 0.40 0.46 0.53 0.59 0.66 0.69 0.71 0.71 0.69 0.62 0.59 0.58 0.53 0.46 0.41 0.40 0.43 0.43
2.03 1.89 1.76 1.70 1.58 1.49 1.36 1.21 1.01 0.85 0.71 0.59 0.57 0.51 0.39 0.30 0.27 0.27 0.28 0.30 0.31 0.33 0.39 0.41 0.38 0.35 0.35 0.39 0.40 0.45 0.52 0.57 0.62 0.64 0.64 0.67 0.64 0.57 0.54 0.50 0.47 0.48 0.48
2.51 2.34 2.22 2.08 1.85 1.67 1.47 1.25 1.04 0.91 0.76 0.64 0.65 0.66 0.57 0.40 0.28 0.22 0.22 0.22 0.22 0.21 0.24 0.26 0.26 0.26 0.26 0.28 0.32 0.38 0.42 0.51 0.59 0.65 0.68 0.69 0.68 0.64 0.60 0.58 0.55 0.54 0.56
2.85 2.66 2.52 2.32 2.03 1.74 1.49 1.26 1.05 0.94 0.82 0.70 0.64 0.65 0.61 0.50 0.35 0.24 0.19 0.15 0.14 0.15 0.16 0.16 0.19 0.21 0.22 0.23 0.26 0.32 0.37 0.42 0.49 0.54 0.59 0.65 0.69 0.69 0.67 0.67 0.67 0.69 0.71
2.71 2.48 2.28 2.05 1.78 1.51 1.30 1.09 0.89 0.76 0.71 0.62 0.53 0.46 0.42 0.36 0.34 0.27 0.17 0.13 0.12 0.12 0.12 0.13 0.15 0.18 0.20 0.23 0.28 0.31 0.33 0.34 0.38 0.41 0.43 0.46 0.50 0.52 0.53 0.54 0.57 0.63 0.68
2.39 2.09 1.82 1.57 1.34 1.11 0.93 0.80 0.67 0.59 0.54 0.47 0.39 0.33 0.30 0.27 0.24 0.25 0.21 0.15 0.13 0.13 0.12 0.12 0.12 0.14 0.17 0.21 0.25 0.31 0.34 0.32 0.33 0.34 0.33 0.32 0.33 0.37 0.41 0.43 0.46 0.51 0.57
1.87 1.49 1.22 1.00 0.81 0.67 0.59 0.53 0.46 0.39 0.34 0.29 0.23 0.18 0.17 0.18 0.19 0.20 0.20 0.15 0.12 0.11 0.11 0.11 0.12 0.13 0.14 0.17 0.21 0.29 0.24 0.24 0.25 0.25 0.24 0.22 0.22 0.24 0.28 0.34 0.40 0.46 0.52
1.37 1.05 0.86 0.73 0.61 0.50 0.41 0.33 0.27 0.22 0.19 0.16 0.15 0.14 0.12 0.11 0.10 0.10 0.11 0.11 0.10 0.08 0.08 0.08 0.08 0.09 0.10 0.12 0.16 0.23 0.19 0.19 0.19 0.17 0.16 0.16 0.17 0.17 0.17 0.20 0.25 0.32 0.39
1.04 0.85 0.69 0.56 0.44 0.32 0.25 0.20 0.17 0.15 0.13 0.11 0.10 0.10 0.10 0.08 0.07 0.07 0.08 0.09 0.11 0.09 0.08 0.07 0.07 0.07 0.08 0.09 0.13 0.16 0.14 0.16 0.15 0.15 0.16 0.15 0.14 0.14 0.15 0.16 0.18 0.20 0.23
0.70 0.55 0.45 0.35 0.26 0.21 0.18 0.15 0.13 0.11 0.10 0.10 0.09 0.07 0.07 0.06 0.05 0.05 0.07 0.09 0.12 0.13 0.10 0.07 0.07 0.06 0.06 0.07 0.09 0.09 0.11 0.14 0.13 0.12 0.12 0.11 0.10 0.10 0.10 0.11 0.12 0.13 0.14
0.48 0.38 0.29 0.24 0.20 0.18 0.16 0.13 0.10 0.08 0.07 0.07 0.06 0.06 0.06 0.06 0.06 0.07 0.09 0.10 0.11 0.15 0.14 0.09 0.07 0.06 0.06 0.05 0.05 0.07 0.10 0.10 0.09 0.07 0.07 0.07 0.08 0.08 0.09 0.09 0.11 0.13 0.14
0.42 0.38 0.33 0.28 0.23 0.19 0.16 0.14 0.12 0.10 0.10 0.10 0.08 0.08 0.09 0.09 0.11 0.10 0.10 0.09 0.09 0.12 0.15 0.08 0.05 0.05 0.08 0.11 0.11 0.14 0.14 0.15 0.13 0.09 0.09 0.10 0.10 0.10 0.10 0.12 0.14 0.15 0.16
0.31 0.27 0.23 0.20 0.18 0.16 0.14 0.12 0.11 0.10 0.09 0.08 0.07 0.08 0.08 0.08 0.09 0.08 0.08 0.07 0.08 0.12 0.15 0.13 0.10 0.09 0.11 0.14 0.17 0.17 0.09 0.07 0.12 0.09 0.09 0.10 0.12 0.13 0.14 0.15 0.15 0.14 0.12
0.22 0.19 0.16 0.14 0.12 0.10 0.08 0.06 0.05 0.04 0.04 0.04 0.04 0.05 0.06 0.06 0.07 0.07 0.08 0.07 0.08 0.10 0.16 0.20 0.16 0.15 0.13 0.12 0.15 0.14 0.14 0.20 0.12 0.09 0.08 0.09 0.10 0.11 0.10 0.08 0.08 0.08 0.06
0.17 0.14 0.11 0.08 0.06 0.05 0.03 0.02 0.02 0.02 0.02 0.03 0.03 0.04 0.04 0.05 0.06 0.07 0.07 0.09 0.13 0.17 0.20 0.22 0.19 0.14 0.12 0.11 0.18 0.19 0.17 0.18 0.16 0.11 0.11 0.09 0.08 0.06 0.05 0.04 0.04 0.05 0.05
0.12 0.09 0.07 0.05 0.03 0.02 0.01 0.01 0.01 0.01 0.01 0.02 0.03 0.03 0.03 0.04 0.06 0.06 0.07 0.11 0.18 0.22 0.23 0.23 0.19 0.14 0.12 0.16 0.21 0.23 0.22 0.17 0.13 0.11 0.13 0.11 0.11 0.13 0.13 0.11 0.07 0.06 0.04
0.06 0.04 0.03 0.02 0.01 0.00 0.00 0.00 0.00 0.00 0.01 0.03 0.04 0.04 0.04 0.03 0.03 0.04 0.06 0.11 0.18 0.22 0.23 0.24 0.22 0.21 0.19 0.24 0.30 0.30 0.30 0.30 0.23 0.17 0.20 0.13 0.12 0.15 0.16 0.17 0.13 0.08 0.06
0.03 0.03 0.02 0.02 0.02 0.01 0.00 0.00 0.00 0.01 0.03 0.05 0.07 0.07 0.05 0.03 0.05 0.08 0.08 0.08 0.10 0.12 0.18 0.26 0.29 0.28 0.29 0.32 0.41 0.40 0.40 0.40 0.34 0.27 0.31 0.24 0.19 0.20 0.15 0.13 0.13 0.11 0.08
0.03 0.03 0.03 0.03 0.05 0.03 0.00 0.00 0.00 0.01 0.04 0.06 0.07 0.08 0.08 0.08 0.08 0.07 0.06 0.06 0.10 0.13 0.16 0.20 0.29 0.29 0.26 0.30 0.40 0.43 0.42 0.39 0.34 0.34 0.41 0.39 0.25 0.21 0.15 0.24 0.24 0.17 0.12
0.04 0.04 0.03 0.04 0.07 0.06 0.01 0.00 0.00 0.02 0.04 0.04 0.04 0.06 0.07 0.09 0.08 0.08 0.07 0.09 0.12 0.16 0.14 0.18 0.24 0.29 0.34 0.39 0.43 0.44 0.49 0.53 0.46 0.39 0.47 0.48 0.38 0.29 0.21 0.29 0.31 0.23 0.21
0.05 0.04 0.04 0.05 0.07 0.08 0.02 0.00 0.01 0.01 0.03 0.04 0.06 0.08 0.09 0.08 0.07 0.07 0.07 0.12 0.19 0.19 0.21 0.26 0.41 0.59 0.66 0.64 0.55 0.51 0.55 0.59 0.59 0.60 0.56 0.56 0.51 0.41 0.35 0.29 0.33 0.36 0.41

GEFSMA_prec_meanprecacc_084.txt.gz
Total_Precipitation_Accumulation
0.31 0.43 0.50 0.52 0.34 0.36 0.35 0.31 0.27 0.27 0.23 0.17 0.15 0.13 0.15 0.16 0.20 0.24 0.26 0.24 0.27 0.40 0.58 0.61 0.56 0.53 0.51 0.47 0.44 0.40 0.37 0.33 0.31 0.28 0.23 0.19 0.17 0.16 0.16 0.17 0.18 0.17 0.18
0.48 0.60 0.61 0.59 0.43 0.44 0.50 0.55 0.52 0.40 0.33 0.32 0.25 0.22 0.23 0.26 0.29 0.32 0.37 0.36 0.33 0.41 0.56 0.66 0.72 0.74 0.70 0.66 0.60 0.54 0.51 0.47 0.46 0.41 0.36 0.31 0.28 0.26 0.24 0.22 0.22 0.20 0.19
0.63 0.64 0.76 0.73 0.58 0.55 0.55 0.53 0.57 0.57 0.52 0.47 0.42 0.36 0.37 0.41 0.43 0.49 0.56 0.59 0.52 0.51 0.57 0.65 0.71 0.75 0.77 0.77 0.72 0.69 0.68 0.62 0.57 0.50 0.46 0.44 0.43 0.42 0.39 0.34 0.33 0.31 0.28
0.81 0.84 0.87 0.87 0.77 0.76 0.83 0.82 0.77 0.77 0.78 0.69 0.64 0.60 0.56 0.58 0.53 0.57 0.57 0.62 0.70 0.61 0.55 0.56 0.59 0.65 0.72 0.78 0.84 0.88 0.87 0.82 0.75 0.66 0.60 0.56 0.55 0.51 0.47 0.44 0.42 0.41 0.38
1.19 1.22 1.27 1.29 1.21 1.25 1.17 1.02 1.03 0.97 1.00 0.90 0.71 0.65 0.60 0.65 0.59 0.52 0.50 0.55 0.63 0.59 0.53 0.49 0.52 0.58 0.65 0.74 0.81 0.85 0.86 0.84 0.81 0.78 0.74 0.70 0.64 0.58 0.52 0.48 0.48 0.50 0.51
1.88 1.82 1.76 1.73 1.65 1.57 1.45 1.30 1.21 1.06 0.96 0.85 0.65 0.55 0.50 0.47 0.47 0.48 0.45 0.46 0.47 0.44 0.45 0.44 0.42 0.43 0.49 0.56 0.63 0.71 0.75 0.78 0.80 0.81 0.74 0.70 0.69 0.64 0.58 0.54 0.54 0.56 0.56
2.37 2.18 2.05 2.00 1.86 1.72 1.57 1.42 1.21 1.06 0.89 0.75 0.74 0.65 0.49 0.39 0.36 0.34 0.34 0.35 0.35 0.36 0.41 0.43 0.41 0.38 0.37 0.41 0.42 0.48 0.55 0.61 0.66 0.71 0.72 0.76 0.73 0.67 0.64 0.62 0.62 0.64 0.64
2.83 2.62 2.50 2.32 2.06 1.87 1.66 1.43 1.24 1.12 0.95 0.81 0.86 0.87 0.72 0.51 0.35 0.26 0.26 0.25 0.24 0.23 0.25 0.27 0.28 0.29 0.29 0.31 0.34 0.40 0.44 0.52 0.60 0.69 0.74 0.75 0.75 0.72 0.69 0.69 0.69 0.70 0.72
3.23 2.99 2.85 2.59 2.24 1.93 1.67 1.43 1.22 1.11 1.03 0.89 0.81 0.86 0.83 0.69 0.45 0.30 0.22 0.17 0.16 0.17 0.18 0.19 0.21 0.22 0.23 0.25 0.27 0.34 0.39 0.44 0.51 0.58 0.63 0.69 0.74 0.75 0.75 0.76 0.79 0.82 0.87
2.90 2.68 2.48 2.27 1.99 1.70 1.48 1.26 1.04 0.92 0.92 0.82 0.69 0.60 0.57 0.53 0.46 0.34 0.20 0.15 0.13 0.14 0.14 0.14 0.16 0.19 0.22 0.24 0.29 0.33 0.35 0.36 0.40 0.43 0.46 0.49 0.53 0.56 0.58 0.60 0.64 0.72 0.80
2.53 2.24 1.97 1.73 1.51 1.29 1.11 0.96 0.81 0.72 0.68 0.62 0.52 0.44 0.40 0.37 0.34 0.32 0.26 0.17 0.15 0.14 0.13 0.13 0.14 0.15 0.18 0.22 0.25 0.32 0.35 0.33 0.35 0.35 0.34 0.34 0.35 0.40 0.46 0.48 0.51 0.58 0.66
1.99 1.61 1.35 1.15 0.97 0.82 0.72 0.65 0.57 0.49 0.44 0.39 0.33 0.27 0.24 0.26 0.26 0.27 0.25 0.18 0.14 0.13 0.12 0.12 0.13 0.13 0.15 0.17 0.22 0.30 0.24 0.24 0.26 0.26 0.25 0.24 0.25 0.27 0.32 0.38 0.44 0.52 0.58
1.52 1.20 0.99 0.85 0.73 0.60 0.50 0.42 0.35 0.31 0.27 0.23 0.22 0.20 0.17 0.15 0.13 0.13 0.13 0.14 0.12 0.10 0.08 0.08 0.08 0.09 0.11 0.12 0.17 0.24 0.19 0.20 0.19 0.18 0.17 0.18 0.18 0.18 0.20 0.23 0.29 0.36 0.44
1.14 0.95 0.79 0.66 0.52 0.39 0.30 0.25 0.22 0.20 0.17 0.15 0.13 0.13 0.12 0.10 0.09 0.09 0.10 0.12 0.13 0.11 0.09 0.09 0.08 0.08 0.08 0.09 0.13 0.17 0.14 0.16 0.15 0.16 0.16 0.16 0.15 0.15 0.16 0.18 0.20 0.23 0.26
0.77 0.62 0.53 0.43 0.33 0.26 0.23 0.19 0.16 0.14 0.12 0.11 0.10 0.09 0.08 0.08 0.08 0.08 0.09 0.11 0.15 0.15 0.12 0.08 0.07 0.07 0.07 0.07 0.10 0.09 0.11 0.15 0.13 0.12 0.12 0.11 0.10 0.10 0.11 0.12 0.13 0.14 0.15
0.55 0.44 0.35 0.29 0.25 0.22 0.19 0.15 0.12 0.10 0.09 0.08 0.08 0.08 0.08 0.07 0.08 0.09 0.10 0.11 0.13 0.16 0.15 0.09 0.07 0.07 0.06 0.05 0.06 0.07 0.10 0.10 0.09 0.07 0.07 0.08 0.08 0.08 0.09 0.10 0.12 0.13 0.15
0.50 0.43 0.36 0.30 0.25 0.21 0.18 0.16 0.14 0.12 0.11 0.11 0.09 0.09 0.10 0.10 0.12 0.11 0.11 0.10 0.10 0.13 0.15 0.08 0.05 0.05 0.09 0.11 0.11 0.14 0.14 0.15 0.13 0.09 0.09 0.10 0.10 0.10 0.10 0.12 0.14 0.15 0.16
0.38 0.32 0.27 0.23 0.21 0.18 0.16 0.14 0.13 0.11 0.09 0.08 0.08 0.08 0.08 0.08 0.10 0.09 0.08 0.07 0.08 0.12 0.15 0.14 0.10 0.09 0.12 0.15 0.17 0.17 0.09 0.08 0.12 0.09 0.09 0.10 0.12 0.13 0.14 0.15 0.15 0.14 0.12
0.29 0.24 0.20 0.18 0.15 0.13 0.11 0.09 0.07 0.05 0.04 0.04 0.04 0.05 0.06 0.07 0.07 0.07 0.08 0.07 0.09 0.10 0.16 0.20 0.16 0.15 0.13 0.12 0.16 0.14 0.14 0.20 0.12 0.09 0.08 0.09 0.10 0.11 0.10 0.08 0.08 0.08 0.06
0.21 0.19 0.15 0.12 0.09 0.07 0.06 0.04 0.03 0.03 0.02 0.03 0.04 0.04 0.04 0.05 0.06 0.07 0.07 0.09 0.13 0.17 0.20 0.23 0.19 0.15 0.13 0.12 0.20 0.20 0.18 0.19 0.17 0.11 0.11 0.09 0.09 0.06 0.05 0.04 0.04 0.05 0.05
0.14 0.12 0.09 0.07 0.05 0.04 0.03 0.02 0.01 0.01 0.02 0.02 0.03 0.03 0.03 0.04 0.06 0.06 0.07 0.11 0.18 0.23 0.24 0.24 0.21 0.17 0.15 0.19 0.23 0.24 0.23 0.18 0.15 0.12 0.14 0.13 0.14 0.16 0.16 0.12 0.08 0.06 0.04
0.08 0.06 0.04 0.03 0.02 0.01 0.01 0.01 0.01 0.01 0.02 0.03 0.04 0.04 0.04 0.03 0.03 0.04 0.06 0.11 0.18 0.22 0.23 0.25 0.24 0.25 0.23 0.27 0.32 0.32 0.32 0.32 0.27 0.19 0.22 0.17 0.15 0.21 0.22 0.20 0.13 0.08 0.06
0.06 0.04 0.03 0.03 0.03 0.01 0.00 0.00 0.00 0.01 0.04 0.06 0.08 0.08 0.05 0.03 0.05 0.09 0.08 0.08 0.10 0.12 0.18 0.26 0.30 0.30 0.31 0.34 0.43 0.42 0.43 0.43 0.38 0.30 0.34 0.30 0.24 0.26 0.19 0.14 0.13 0.11 0.08
0.06 0.05 0.04 0.04 0.05 0.03 0.00 0.00 0.00 0.02 0.05 0.07 0.08 0.09 0.10 0.09 0.08 0.07 0.06 0.07 0.12 0.15 0.16 0.20 0.30 0.30 0.27 0.30 0.40 0.44 0.44 0.43 0.42 0.41 0.45 0.45 0.33 0.28 0.19 0.27 0.24 0.17 0.12
0.07 0.06 0.05 0.05 0.07 0.06 0.01 0.00 0.00 0.03 0.06 0.05 0.05 0.06 0.07 0.10 0.08 0.08 0.08 0.12 0.16 0.19 0.14 0.18 0.24 0.29 0.34 0.39 0.43 0.45 0.52 0.58 0.54 0.48 0.52 0.53 0.44 0.36 0.29 0.34 0.33 0.23 0.21
0.07 0.06 0.05 0.07 0.08 0.09 0.03 0.00 0.01 0.03 0.06 0.06 0.07 0.09 0.09 0.08 0.07 0.07 0.07 0.15 0.22 0.20 0.22 0.28 0.44 0.61 0.67 0.65 0.55 0.52 0.60 0.65 0.64 0.67 0.61 0.60 0.56 0.46 0.41 0.35 0.36 0.39 0.43

GEFSMA_prec_meanprecacc_090.txt.gz
Total_Precipitation_Accumulation
0.46 0.64 0.66 0.71 0.48 0.45 0.40 0.36 0.31 0.31 0.26 0.21 0.20 0.20 0.23 0.26 0.30 0.32 0.31 0.29 0.31 0.45 0.64 0.69 0.63 0.58 0.56 0.53 0.50 0.47 0.43 0.41 0.39 0.35 0.30 0.24 0.21 0.21 0.21 0.22 0.22 0.21 0.20
0.64 0.86 0.90 0.89 0.69 0.66 0.69 0.69 0.64 0.50 0.41 0.40 0.35 0.32 0.34 0.40 0.45 0.43 0.44 0.41 0.38 0.45 0.63 0.73 0.78 0.80 0.76 0.73 0.66 0.61 0.58 0.55 0.53 0.48 0.42 0.37 0.34 0.33 0.31 0.29 0.28 0.26 0.22
0.92 0.92 1.11 1.08 0.91 0.86 0.84 0.76 0.79 0.77 0.66 0.59 0.53 0.48 0.52 0.56 0.57 0.60 0.63 0.65 0.57 0.56 0.62 0.71 0.76 0.80 0.83 0.84 0.80 0.75 0.73 0.68 0.62 0.55 0.51 0.49 0.48 0.48 0.46 0.42 0.39 0.37 0.32
1.24 1.20 1.18 1.19 1.10 1.09 1.22 1.20 1.05 1.00 0.96 0.84 0.78 0.72 0.67 0.70 0.66 0.69 0.65 0.69 0.76 0.66 0.58 0.61 0.64 0.69 0.77 0.85 0.92 0.95 0.93 0.86 0.79 0.70 0.64 0.60 0.58 0.54 0.51 0.48 0.47 0.46 0.43
1.61 1.64 1.63 1.64 1.52 1.54 1.46 1.32 1.30 1.18 1.18 1.06 0.84 0.76 0.71 0.76 0.69 0.60 0.57 0.61 0.68 0.64 0.58 0.53 0.56 0.61 0.69 0.79 0.86 0.90 0.92 0.88 0.84 0.81 0.77 0.73 0.67 0.62 0.56 0.52 0.53 0.55 0.56
2.27 2.27 2.17 2.08 1.98 1.84 1.69 1.56 1.47 1.28 1.15 1.02 0.77 0.66 0.61 0.57 0.55 0.57 0.53 0.53 0.54 0.50 0.51 0.51 0.48 0.47 0.52 0.58 0.65 0.74 0.79 0.82 0.83 0.83 0.76 0.73 0.71 0.66 0.61 0.57 0.58 0.61 0.61
2.74 2.57 2.43 2.33 2.14 1.95 1.77 1.61 1.41 1.25 1.07 0.93 0.90 0.78 0.59 0.47 0.46 0.44 0.42 0.42 0.41 0.42 0.47 0.48 0.44 0.41 0.39 0.43 0.44 0.50 0.58 0.63 0.69 0.73 0.74 0.78 0.75 0.69 0.67 0.65 0.65 0.67 0.68
3.17 2.93 2.82 2.62 2.31 2.09 1.85 1.61 1.40 1.28 1.11 0.96 0.99 0.98 0.81 0.60 0.45 0.35 0.32 0.30 0.28 0.27 0.28 0.29 0.29 0.30 0.30 0.32 0.36 0.41 0.44 0.53 0.61 0.70 0.75 0.76 0.76 0.73 0.71 0.71 0.71 0.72 0.74
3.65 3.36 3.19 2.90 2.57 2.22 1.91 1.63 1.39 1.27 1.18 1.05 0.94 0.98 0.94 0.78 0.52 0.36 0.27 0.21 0.18 0.19 0.19 0.20 0.22 0.23 0.24 0.25 0.28 0.35 0.39 0.44 0.52 0.58 0.63 0.70 0.74 0.76 0.76 0.77 0.80 0.83 0.88
3.23 3.03 2.81 2.53 2.23 1.93 1.69 1.45 1.20 1.07 1.08 0.99 0.85 0.74 0.69 0.63 0.54 0.40 0.25 0.19 0.16 0.15 0.14 0.14 0.16 0.19 0.22 0.24 0.29 0.33 0.35 0.36 0.41 0.43 0.46 0.49 0.54 0.57 0.59 0.61 0.66 0.74 0.82
2.74 2.48 2.23 1.95 1.69 1.48 1.30 1.16 1.02 0.90 0.84 0.77 0.67 0.59 0.55 0.49 0.41 0.38 0.31 0.21 0.18 0.16 0.14 0.13 0.14 0.16 0.18 0.22 0.26 0.32 0.35 0.33 0.35 0.35 0.35 0.34 0.36 0.41 0.46 0.49 0.53 0.60 0.68
2.15 1.77 1.54 1.32 1.13 0.98 0.88 0.80 0.73 0.65 0.59 0.52 0.46 0.40 0.36 0.36 0.34 0.33 0.29 0.21 0.16 0.14 0.13 0.13 0.14 0.15 0.15 0.18 0.22 0.30 0.24 0.24 0.26 0.26 0.25 0.25 0.25 0.27 0.32 0.39 0.46 0.53 0.60
1.69 1.36 1.12 0.97 0.84 0.74 0.64 0.56 0.49 0.43 0.37 0.32 0.29 0.26 0.22 0.19 0.17 0.17 0.16 0.16 0.13 0.11 0.10 0.10 0.09 0.10 0.11 0.12 0.17 0.24 0.19 0.20 0.19 0.18 0.17 0.18 0.18 0.19 0.20 0.23 0.29 0.36 0.44
1.28 1.08 0.92 0.78 0.62 0.47 0.40 0.35 0.31 0.26 0.22 0.18 0.16 0.15 0.14 0.12 0.12 0.11 0.12 0.14 0.15 0.13 0.11 0.10 0.09 0.09 0.09 0.10 0.14 0.18 0.15 0.17 0.15 0.16 0.16 0.16 0.15 0.15 0.16 0.18 0.20 0.23 0.27
0.84 0.70 0.60 0.51 0.41 0.33 0.28 0.24 0.21 0.18 0.15 0.13 0.12 0.10 0.10 0.09 0.09 0.09 0.10 0.12 0.16 0.16 0.13 0.10 0.09 0.08 0.08 0.08 0.11 0.10 0.11 0.15 0.13 0.12 0.12 0.11 0.10 0.10 0.11 0.12 0.13 0.14 0.15
0.60 0.50 0.41 0.34 0.31 0.26 0.23 0.18 0.14 0.12 0.10 0.10 0.09 0.09 0.09 0.08 0.09 0.10 0.11 0.11 0.13 0.16 0.16 0.10 0.09 0.08 0.08 0.06 0.06 0.07 0.10 0.10 0.09 0.07 0.07 0.08 0.08 0.08 0.09 0.10 0.12 0.13 0.15
0.54 0.46 0.41 0.36 0.31 0.26 0.21 0.17 0.15 0.13 0.12 0.11 0.10 0.09 0.10 0.11 0.12 0.11 0.11 0.10 0.10 0.13 0.16 0.09 0.06 0.06 0.09 0.11 0.12 0.14 0.14 0.15 0.13 0.09 0.09 0.10 0.10 0.10 0.10 0.12 0.14 0.15 0.16
0.39 0.33 0.28 0.26 0.25 0.22 0.18 0.15 0.14 0.12 0.10 0.09 0.08 0.08 0.08 0.08 0.10 0.09 0.08 0.07 0.08 0.12 0.15 0.14 0.10 0.09 0.12 0.15 0.17 0.17 0.09 0.08 0.12 0.09 0.09 0.10 0.12 0.13 0.14 0.15 0.15 0.14 0.12
0.31 0.26 0.21 0.19 0.17 0.14 0.12 0.09 0.08 0.06 0.05 0.04 0.04 0.05 0.06 0.07 0.07 0.07 0.08 0.07 0.09 0.10 0.16 0.20 0.16 0.15 0.13 0.13 0.16 0.14 0.14 0.20 0.12 0.09 0.08 0.09 0.10 0.11 0.10 0.08 0.08 0.08 0.06
0.23 0.20 0.17 0.13 0.10 0.08 0.06 0.05 0.04 0.03 0.03 0.03 0.04 0.04 0.04 0.05 0.06 0.07 0.07 0.09 0.13 0.17 0.20 0.23 0.19 0.15 0.13 0.12 0.20 0.20 0.18 0.19 0.17 0.11 0.11 0.09 0.09 0.06 0.05 0.04 0.04 0.05 0.05
0.16 0.13 0.10 0.08 0.07 0.05 0.04 0.03 0.02 0.01 0.02 0.02 0.03 0.03 0.03 0.04 0.06 0.06 0.07 0.11 0.18 0.23 0.24 0.24 0.21 0.17 0.15 0.19 0.23 0.24 0.23 0.18 0.15 0.12 0.14 0.13 0.14 0.16 0.16 0.12 0.08 0.06 0.04
0.10 0.08 0.06 0.05 0.03 0.02 0.01 0.01 0.01 0.01 0.02 0.03 0.04 0.04 0.04 0.03 0.03 0.04 0.06 0.11 0.18 0.22 0.23 0.25 0.24 0.25 0.23 0.27 0.32 0.32 0.32 0.33 0.27 0.19 0.22 0.17 0.15 0.21 0.22 0.20 0.13 0.08 0.06
0.08 0.06 0.04 0.03 0.03 0.02 0.01 0.00 0.00 0.01 0.04 0.06 0.08 0.08 0.05 0.03 0.05 0.09 0.08 0.08 0.10 0.12 0.18 0.26 0.30 0.30 0.31 0.34 0.43 0.42 0.43 0.43 0.38 0.30 0.35 0.30 0.24 0.26 0.19 0.14 0.13 0.11 0.08
0.08 0.06 0.04 0.04 0.05 0.03 0.00 0.00 0.00 0.03 0.06 0.07 0.08 0.09 0.10 0.09 0.08 0.07 0.06 0.07 0.12 0.15 0.16 0.20 0.30 0.30 0.27 0.30 0.40 0.44 0.44 0.43 0.42 0.41 0.45 0.46 0.33 0.28 0.19 0.27 0.24 0.17 0.12
0.08 0.06 0.05 0.05 0.07 0.07 0.01 0.00 0.00 0.03 0.06 0.05 0.05 0.06 0.07 0.10 0.08 0.08 0.08 0.12 0.16 0.19 0.14 0.18 0.24 0.29 0.34 0.39 0.43 0.45 0.52 0.58 0.54 0.48 0.52 0.53 0.44 0.36 0.29 0.34 0.33 0.23 0.21
0.09 0.06 0.06 0.07 0.08 0.09 0.03 0.01 0.01 0.03 0.06 0.06 0.08 0.09 0.09 0.08 0.07 0.07 0.07 0.15 0.22 0.20 0.22 0.28 0.44 0.61 0.67 0.65 0.55 0.52 0.60 0.65 0.64 0.67 0.61 0.60 0.56 0.46 0.41 0.35 0.37 0.39 0.43

GEFSMA_prec_meanprecacc_096.txt.gz
Total_Precipitation_Accumulation
0.48 0.66 0.69 0.73 0.51 0.48 0.43 0.38 0.33 0.32 0.27 0.22 0.21 0.21 0.25 0.29 0.33 0.35 0.35 0.34 0.37 0.52 0.73 0.79 0.71 0.66 0.64 0.60 0.56 0.54 0.50 0.49 0.46 0.41 0.35 0.28 0.25 0.25 0.26 0.27 0.27 0.26 0.25
0.68 0.91 0.96 0.93 0.73 0.69 0.72 0.72 0.67 0.53 0.44 0.43 0.38 0.36 0.38 0.46 0.51 0.49 0.49 0.46 0.44 0.51 0.71 0.83 0.87 0.87 0.83 0.78 0.72 0.67 0.64 0.61 0.58 0.52 0.46 0.41 0.38 0.38 0.36 0.33 0.32 0.30 0.27
1.01 1.03 1.21 1.18 0.99 0.95 0.92 0.84 0.87 0.84 0.72 0.65 0.58 0.52 0.58 0.64 0.63 0.66 0.68 0.69 0.61 0.61 0.69 0.79 0.84 0.87 0.89 0.89 0.84 0.80 0.78 0.72 0.66 0.58 0.54 0.52 0.51 0.52 0.49 0.45 0.42 0.39 0.35
1.39 1.35 1.35 1.33 1.24 1.24 1.36 1.35 1.19 1.12 1.07 0.96 0.88 0.81 0.77 0.81 0.76 0.76 0.71 0.74 0.82 0.71 0.63 0.66 0.68 0.73 0.83 0.92 0.99 1.01 0.97 0.89 0.81 0.72 0.67 0.63 0.62 0.57 0.53 0.50 0.49 0.48 0.45
1.83 1.84 1.82 1.82 1.70 1.75 1.69 1.54 1.51 1.37 1.34 1.20 0.97 0.90 0.85 0.87 0.79 0.70 0.66 0.68 0.74 0.70 0.62 0.57 0.59 0.65 0.74 0.85 0.92 0.97 0.97 0.91 0.87 0.83 0.80 0.75 0.70 0.63 0.58 0.54 0.55 0.57 0.58
2.52 2.52 2.42 2.34 2.22 2.08 1.95 1.83 1.74 1.53 1.38 1.20 0.92 0.79 0.74 0.67 0.64 0.63 0.59 0.58 0.58 0.54 0.54 0.54 0.51 0.49 0.55 0.62 0.68 0.78 0.82 0.84 0.85 0.85 0.78 0.75 0.73 0.67 0.62 0.58 0.59 0.62 0.62
3.07 2.87 2.73 2.66 2.45 2.22 2.04 1.91 1.69 1.52 1.34 1.15 1.06 0.90 0.67 0.54 0.52 0.48 0.45 0.45 0.44 0.45 0.50 0.51 0.46 0.42 0.41 0.45 0.46 0.51 0.58 0.64 0.70 0.74 0.75 0.79 0.77 0.71 0.68 0.66 0.66 0.69 0.69
3.54 3.27 3.15 2.94 2.64 2.40 2.16 1.91 1.67 1.52 1.35 1.20 1.18 1.13 0.91 0.68 0.50 0.39 0.36 0.33 0.31 0.29 0.30 0.31 0.30 0.31 0.32 0.33 0.37 0.42 0.45 0.54 0.62 0.70 0.76 0.76 0.77 0.74 0.73 0.73 0.72 0.73 0.75
4.00 3.74 3.57 3.24 2.90 2.54 2.23 1.94 1.68 1.51 1.39 1.26 1.13 1.14 1.04 0.85 0.59 0.41 0.31 0.24 0.21 0.21 0.21 0.21 0.23 0.25 0.25 0.27 0.29 0.36 0.40 0.45 0.52 0.59 0.64 0.70 0.75 0.76 0.77 0.79 0.81 0.85 0.90
3.44 3.30 3.15 2.93 2.63 2.29 2.03 1.77 1.50 1.33 1.30 1.19 1.03 0.88 0.78 0.69 0.59 0.46 0.31 0.23 0.19 0.18 0.17 0.16 0.18 0.20 0.23 0.25 0.30 0.34 0.36 0.37 0.41 0.44 0.46 0.50 0.54 0.57 0.59 0.62 0.66 0.75 0.83
2.89 2.65 2.48 2.30 2.07 1.84 1.62 1.47 1.32 1.17 1.07 0.97 0.84 0.74 0.66 0.58 0.49 0.44 0.38 0.27 0.23 0.19 0.17 0.15 0.16 0.17 0.19 0.22 0.26 0.33 0.35 0.33 0.35 0.35 0.35 0.34 0.36 0.41 0.46 0.50 0.54 0.61 0.69
2.30 1.94 1.73 1.56 1.40 1.23 1.13 1.07 0.99 0.89 0.81 0.72 0.62 0.54 0.49 0.48 0.44 0.41 0.36 0.28 0.23 0.19 0.16 0.15 0.16 0.16 0.16 0.18 0.22 0.30 0.24 0.24 0.26 0.26 0.25 0.25 0.25 0.28 0.33 0.39 0.46 0.54 0.61
1.80 1.48 1.27 1.15 1.07 0.98 0.86 0.81 0.74 0.65 0.56 0.51 0.47 0.42 0.36 0.31 0.28 0.27 0.26 0.24 0.19 0.15 0.13 0.12 0.11 0.11 0.12 0.13 0.18 0.25 0.20 0.20 0.19 0.18 0.17 0.18 0.18 0.19 0.20 0.24 0.30 0.37 0.45
1.37 1.18 1.03 0.92 0.75 0.61 0.56 0.54 0.50 0.44 0.37 0.33 0.29 0.28 0.26 0.23 0.21 0.19 0.19 0.20 0.21 0.18 0.14 0.12 0.10 0.10 0.10 0.11 0.15 0.18 0.15 0.17 0.16 0.16 0.16 0.16 0.15 0.15 0.16 0.18 0.21 0.24 0.27
0.91 0.79 0.68 0.60 0.52 0.45 0.40 0.38 0.36 0.33 0.28 0.25 0.22 0.20 0.19 0.19 0.18 0.17 0.17 0.18 0.21 0.21 0.17 0.12 0.11 0.10 0.09 0.09 0.11 0.10 0.11 0.15 0.13 0.13 0.12 0.11 0.10 0.10 0.11 0.12 0.13 0.14 0.16
0.66 0.55 0.47 0.40 0.38 0.37 0.35 0.30 0.26 0.22 0.20 0.18 0.16 0.16 0.16 0.14 0.15 0.16 0.16 0.16 0.16 0.19 0.18 0.13 0.11 0.10 0.09 0.07 0.07 0.08 0.10 0.10 0.09 0.07 0.07 0.08 0.08 0.08 0.09 0.10 0.12 0.13 0.15
0.61 0.50 0.44 0.41 0.36 0.32 0.27 0.25 0.23 0.20 0.19 0.16 0.13 0.13 0.15 0.15 0.15 0.14 0.13 0.13 0.13 0.15 0.17 0.10 0.07 0.07 0.10 0.12 0.12 0.14 0.14 0.15 0.13 0.09 0.09 0.10 0.10 0.10 0.10 0.12 0.14 0.15 0.16
0.45 0.37 0.31 0.29 0.29 0.27 0.23 0.21 0.20 0.17 0.14 0.12 0.10 0.10 0.10 0.10 0.11 0.09 0.09 0.08 0.09 0.12 0.16 0.14 0.10 0.09 0.12 0.15 0.17 0.17 0.09 0.08 0.12 0.09 0.09 0.10 0.12 0.13 0.14 0.15 0.15 0.14 0.12
0.35 0.31 0.26 0.22 0.21 0.20 0.17 0.16 0.15 0.11 0.08 0.07 0.07 0.07 0.07 0.08 0.08 0.07 0.08 0.07 0.09 0.10 0.16 0.20 0.17 0.15 0.14 0.13 0.16 0.14 0.14 0.20 0.12 0.09 0.08 0.09 0.10 0.11 0.10 0.08 0.08 0.08 0.06
0.27 0.25 0.20 0.16 0.12 0.10 0.09 0.09 0.09 0.07 0.06 0.06 0.06 0.06 0.06 0.06 0.06 0.07 0.07 0.09 0.13 0.17 0.20 0.23 0.19 0.15 0.14 0.13 0.20 0.20 0.18 0.19 0.17 0.11 0.11 0.09 0.09 0.06 0.05 0.04 0.04 0.05 0.05
0.20 0.18 0.14 0.10 0.08 0.06 0.05 0.05 0.04 0.03 0.03 0.04 0.04 0.04 0.04 0.05 0.06 0.06 0.08 0.11 0.18 0.23 0.24 0.24 0.21 0.17 0.16 0.20 0.23 0.24 0.23 0.19 0.15 0.12 0.14 0.13 0.14 0.16 0.16 0.12 0.08 0.06 0.04
0.14 0.11 0.10 0.08 0.06 0.04 0.03 0.02 0.02 0.02 0.02 0.03 0.04 0.05 0.04 0.03 0.03 0.04 0.06 0.11 0.18 0.22 0.23 0.25 0.24 0.25 0.23 0.27 0.32 0.32 0.32 0.33 0.27 0.19 0.22 0.17 0.15 0.21 0.22 0.20 0.13 0.08 0.06
0.13 0.10 0.06 0.06 0.05 0.03 0.01 0.01 0.01 0.02 0.04 0.06 0.08 0.09 0.06 0.03 0.05 0.09 0.08 0.08 0.10 0.12 0.18 0.26 0.30 0.30 0.31 0.34 0.43 0.42 0.43 0.43 0.38 0.30 0.35 0.30 0.24 0.26 0.19 0.14 0.13 0.11 0.08
0.13 0.10 0.07 0.05 0.06 0.04 0.01 0.01 0.00 0.03 0.06 0.07 0.08 0.09 0.10 0.09 0.08 0.07 0.06 0.07 0.12 0.15 0.16 0.20 0.30 0.30 0.27 0.30 0.40 0.44 0.44 0.43 0.42 0.41 0.45 0.46 0.33 0.28 0.19 0.27 0.24 0.17 0.12
0.12 0.09 0.07 0.06 0.08 0.07 0.02 0.01 0.01 0.04 0.06 0.05 0.05 0.06 0.07 0.10 0.08 0.08 0.08 0.12 0.16 0.19 0.14 0.18 0.24 0.29 0.34 0.39 0.43 0.45 0.52 0.58 0.54 0.48 0.52 0.53 0.44 0.36 0.29 0.34 0.33 0.23 0.21
0.12 0.08 0.07 0.08 0.09 0.09 0.03 0.01 0.02 0.04 0.07 0.06 0.08 0.09 0.09 0.08 0.07 0.07 0.07 0.15 0.22 0.20 0.22 0.28 0.44 0.61 0.67 0.65 0.55 0.52 0.60 0.65 0.64 0.67 0.61 0.60 0.56 0.46 0.41 0.35 0.37 0.39 0.43